Location: Bruderhein
(53.8035°N, 112.9265°W)
Time: 02:45:29
(UTC+00:00)

STRAND 1 - Pass Details

Date: 06 April 2023
Orbit: 767 x 779 km, 98.4° (Epoch: 31 May)

Event Time Altitude Azimuth Distance (km) Brightness Sun altitude
Rises 11:58:28 0° 129° (SE) 3,244 ? -8.5°
Reaches altitude 10° 12:01:01 10° 119° (ESE) 2,319 ? -8.1°
Maximum altitude 12:05:24 30° 59° (ENE) 1,367 ? -7.5°
Drops below altitude 10° 12:09:48 10° 0° (N) 2,326 ? -6.9°
Sets 12:12:20 0° 350° (N) 3,256 ? -6.6°
